CZ-4 DEB, 26140

Orbit data source: Space-Track

CZ-4 DEB, 26140 is space debris in LEO originally from a launch on Thu, 14 Oct 1999 UTC launched from the Taiyaun Space Center, China (TSC). Debris objects in space refer to the collection of defunct objects orbiting the Earth. Examples of debris include non-operational satellites, rocket bodies, and fragments generated from explosions, collisions, or faulty payload assembly.

Loading next visibility...
CZ-4 DEB details
Identifier
26140, 1999-057AC
Orbit
LEO
Last TLE update1 day ago
Origin
Flag of CNCNSA (CN / PRC)
ManufacturerUnknown
MissionSpacecraft
Bus & MotorUnknown
MassUnknown
Launch date (UTC)
1999-10-14 (25 years ago)
Launch vehicleUnknown
Launch site
Taiyaun Space Center, China (TSC)
Object type
Payload
Rocket body
Debris
Shape & HBRUnknown
Radar Cross SectionSmall (<0.1 m²)

Expand to show TLE details & history

TLE from 1 day ago
0 CZ-4 DEB
1 26140U 99057AC  24347.62233681  .00009307  00000-0  17929-2 0  9993
2 26140  99.3688 203.6000 0152094 151.9607 278.0498 14.56618528293456
Epoch: 2024-12-12T14:56Z
Definitive object data (Epoch: 2024-12-12T14:56:09.9Z)
Latitude66.52417°
Longitude-124.44157°
Altitude702.087 km
Speed7.518 km/s
True Right ascension12h 05m 35s
True Declination66° 23' 50"
Sunlit
Object was in daylight at TLE epoch
Visualization TLE readout
Latitude18.81773°
Longitude82.14081°
Altitude601.085 km
Speed7.617 km/s
Apparent Right ascension02h 10m 31s
Apparent Declination-9° 05' 21"
Sunlit
Object is in full shadow
Visualization observer readout
Local Sidereal Time14:35:37
Azimuth11.982° NNE
Elevation-58.669°
Doppler factor1
Orbital elements
Apogee altitude808.929 km
Perigee altitude593.582 km
Semi-major axis7,079.393 km
Eccentricity0.0152094
Inclination99.3688°
RAAN203.6°
Arg. of periapsis151.9607°
True anomaly276.31976°
Mean anomaly278.0498°
Eccentric anomaly277.18521°
Mean motion3.64375 °/min
BSTAR0.0017929
Orbital period98.8 mins
Loading maneuver chart data...
Loading historical data...
Loading historical data...
Loading historical data...
Loading historical data...
Loading historical data...
Loading historical data...
Loading historical data...

CZ-4 DEB Visibility forecast

Observer location: undefined°, undefined

Span
Click to sort rows by Start time (UTC) header in descending order
Start Az.
Max El. time (UTC)
Max El. Az.
Max El.
End time (UTC)
End Az.
7 mins2024-12-14 03:27:46.073Z19.408° NNE2024-12-14 03:31:46.073Z131.974° SE43.094°2024-12-14 03:34:46.073Z186.751° SSW
8 mins2024-12-14 14:33:46.073Z164.275° S2024-12-14 14:36:46.073Z164.257° S44.554°2024-12-14 14:41:46.073Z345.694° N
|